Warwick, RI

6:43 AM EST on February 28, 2017 (GMT -0500)
Green State

Weather History for KPVD - February, 2014

Change the Weather History Date:

Wednesday, February 5, 2014

  Actual Average Record
Temperature  
Mean Temperature 29 °F 30 °F  
Max Temperature 33 °F 39 °F 62 °F (1991)
Min Temperature 25 °F 22 °F -10 °F (1918)
Degree Days  
Heating Degree Days 36 35  
Month to date heating degree days 154 175  
Since 1 July heating degree days 3410 3312  
Cooling Degree Days 0 0  
Month to date cooling degree days 0 0  
Year to date cooling degree days 0 0  
Moisture  
Dew Point 26 °F    
Average Humidity 87    
Maximum Humidity 96    
Minimum Humidity 78    
Precipitation  
Precipitation 1.06 in 0.11 in 1.42 in (1920)
Month to date precipitation 1.48 0.57  
Year to date precipitation 5.17 4.43  
Snow  
Snow 4.40 in 0.30 in 9.80 in (1907)
Month to date snowfall 8.0 1.6  
Since 1 July snowfall 30.1 20.8  
Snow Depth 5.00 in    
Sea Level Pressure  
Sea Level Pressure 29.92 in    
Wind  
Wind Speed 9 mph (NNE)    
Max Wind Speed 16 mph    
Max Gust Speed 24 mph    
Visibility 3 miles    
Events Fog , Rain , Snow    
T = Trace of Precipitation, MM = Missing Value Source: NWS Daily Summary

Daily Weather History Graph

Daily Weather History Graph

Search for Another Location

Airport or City:

Trip Planner

Search our weather history database for the weather conditions in past years. The results will help you decide how hot, cold, wet, or windy it might be!

Date:

Astronomy

Feb. 05, 2014 Rise Set
Actual Time 6:53 AM EST 5:06 PM EST
Civil Twilight 6:24 AM EST 5:35 PM EST
Nautical Twilight 5:51 AM EST 6:08 PM EST
Astronomical Twilight 5:18 AM EST 6:41 PM EST
Moon 10:00 AM EST (2/5) No Moon Set
Length of Visible Light 11h 11m
Length of Day
10h 12m
Waxing Crescent, 39% of the Moon is Illuminated
Feb 5
Waxing Crescent
Feb 6
First Quarter
Feb 14
Full
Feb 22
Last Quarter
Mar 1
New

Hourly Weather History & Observations

Time (EST) Temp. Windchill Dew Point Humidity Pressure Visibility Wind Dir Wind Speed Gust Speed Precip Events Conditions
12:51 AM 27.0 °F - 24.1 °F 89% 30.30 in 5.0 mi North - - N/A   Clear
1:51 AM 25.0 °F - 23.0 °F 92% 30.25 in 5.0 mi North - - N/A   Clear
2:51 AM 28.9 °F - 25.0 °F 85% 30.25 in 6.0 mi North - - N/A   Overcast
3:51 AM 28.9 °F - 25.0 °F 85% 30.23 in 5.0 mi North - - N/A   Overcast
4:51 AM 28.9 °F - 24.1 °F 82% 30.18 in 5.0 mi North - - 0.00 in Snow Light Snow
4:56 AM 28.4 °F - 24.8 °F 86% 30.17 in 2.0 mi North - - 0.00 in Snow Light Snow
5:02 AM 28.4 °F - 24.8 °F 86% 30.17 in 0.8 mi North - - 0.01 in Snow Light Snow
5:16 AM 28.4 °F - 24.8 °F 86% 30.18 in 0.5 mi North - - 0.03 in Fog , Snow Snow
5:23 AM 28.4 °F - 26.6 °F 93% 30.17 in 0.5 mi North - - 0.04 in Fog , Snow Snow
5:41 AM 28.4 °F - 26.6 °F 93% 30.14 in 0.2 mi North - - 0.08 in Fog , Snow Heavy Snow
5:43 AM 28.4 °F - 26.6 °F 93% 30.14 in 0.2 mi North - - 0.08 in Fog , Snow Heavy Snow
5:51 AM 28.0 °F 18.1 °F 26.1 °F 92% 30.14 in 0.2 mi East 11.5 mph - 0.12 in Fog , Snow Heavy Snow
6:44 AM 28.4 °F 18.5 °F 26.6 °F 93% 30.12 in 0.2 mi East 11.5 mph - 0.17 in Fog , Snow Snow
6:51 AM 28.0 °F 20.0 °F 26.1 °F 92% 30.12 in 0.2 mi ENE 8.1 mph - 0.19 in Fog , Snow Heavy Snow
7:20 AM 28.4 °F 20.4 °F 26.6 °F 93% 30.10 in 0.8 mi ENE 8.1 mph - 0.08 in Snow Light Snow
7:30 AM 28.4 °F 20.4 °F 26.6 °F 93% 30.11 in 0.8 mi ENE 8.1 mph - 0.09 in Snow Light Snow
7:51 AM 28.0 °F 19.3 °F 26.1 °F 92% 30.10 in 0.8 mi NNE 9.2 mph - 0.12 in Snow Light Snow
8:27 AM 28.4 °F 18.5 °F 26.6 °F 93% 30.07 in 0.8 mi NNW 11.5 mph - 0.09 in Snow Light Snow
8:41 AM 28.4 °F 18.5 °F 26.6 °F 93% 30.06 in 0.8 mi NNE 11.5 mph - 0.11 in Snow Light Snow
8:49 AM 28.4 °F 19.1 °F 26.6 °F 93% 30.04 in 0.8 mi NE 10.4 mph - 0.14 in Snow Light Snow
8:51 AM 28.0 °F 18.1 °F 26.1 °F 92% 30.03 in 0.8 mi NE 11.5 mph - 0.15 in Snow Light Snow
9:21 AM 30.2 °F 20.8 °F 28.4 °F 93% 29.99 in 1.2 mi NNE 11.5 mph - 0.13 in Snow Light Snow
9:51 AM 30.9 °F 21.7 °F 28.9 °F 92% 29.98 in 1.2 mi NNE 11.5 mph - 0.22 in Snow Light Snow
9:58 AM 30.2 °F 20.8 °F 28.4 °F 93% 29.97 in 2.0 mi NNE 11.5 mph - 0.02 in Rain Light Freezing Rain
10:51 AM 30.9 °F 22.8 °F 28.9 °F 92% 29.89 in 2.0 mi ENE 9.2 mph - 0.10 in Snow Light Snow
10:58 AM 32.0 °F 24.2 °F 28.4 °F 87% 29.88 in 6.0 mi ENE 9.2 mph - 0.00 in Rain , Snow Light Rain
11:51 AM 32.0 °F 23.6 °F 30.0 °F 92% 29.79 in 6.0 mi NE 10.4 mph - 0.02 in Rain Light Rain
12:51 PM 33.1 °F 24.4 °F 30.0 °F 89% 29.68 in 5.0 mi ENE 11.5 mph - 0.01 in Rain Light Rain
1:25 PM 33.8 °F 25.3 °F 30.2 °F 87% 29.66 in 2.5 mi ENE 11.5 mph - 0.03 in Rain Rain
1:36 PM 33.8 °F 25.3 °F 30.2 °F 87% 29.68 in 4.0 mi NE 11.5 mph - 0.04 in Rain Light Rain
1:51 PM 33.1 °F 24.4 °F 30.9 °F 92% 29.66 in 4.0 mi NE 11.5 mph 20.7 mph 0.05 in Rain Rain
2:51 PM 33.1 °F 26.9 °F 30.9 °F 92% 29.62 in 1.5 mi NE 6.9 mph - 0.02 in Rain Light Rain
3:28 PM 33.8 °F 28.6 °F 30.2 °F 87% 29.64 in 1.0 mi North 5.8 mph - 0.02 in Rain Light Rain
3:51 PM 33.1 °F 26.1 °F 32.0 °F 96% 29.64 in 2.0 mi North 8.1 mph - 0.03 in Rain Light Rain
4:51 PM 33.1 °F 23.9 °F 30.9 °F 92% 29.62 in 3.0 mi North 12.7 mph - 0.01 in Rain , Snow Light Rain
5:24 PM 30.2 °F 19.3 °F 28.4 °F 93% 29.62 in 2.0 mi NNW 15.0 mph - 0.01 in Snow Light Snow
5:51 PM 30.0 °F 19.1 °F 26.1 °F 85% 29.65 in 2.5 mi North 15.0 mph 20.7 mph 0.01 in Snow Light Snow
6:13 PM 28.4 °F 16.6 °F 26.6 °F 93% 29.66 in 3.0 mi North 16.1 mph - 0.00 in   Overcast
6:51 PM 28.0 °F 17.0 °F 25.0 °F 88% 29.68 in 5.0 mi NNW 13.8 mph 19.6 mph 0.00 in Snow Light Snow
7:19 PM 28.4 °F 16.6 °F 24.8 °F 86% 29.69 in 4.0 mi North 16.1 mph 24.2 mph 0.00 in Snow Light Snow
7:34 PM 28.4 °F 18.0 °F 24.8 °F 86% 29.70 in 3.0 mi North 12.7 mph - 0.00 in Snow Light Snow
7:48 PM 28.4 °F 18.0 °F 23.0 °F 80% 29.71 in 6.0 mi NNW 12.7 mph - 0.00 in Snow Light Snow
7:51 PM 28.0 °F 17.5 °F 23.0 °F 81% 29.71 in 7.0 mi North 12.7 mph 20.7 mph 0.00 in Snow Light Snow
8:48 PM 26.6 °F 15.7 °F 23.0 °F 86% 29.76 in 7.0 mi North 12.7 mph - 0.00 in Snow Light Snow
8:51 PM 27.0 °F 18.7 °F 23.0 °F 85% 29.77 in 6.0 mi NNW 8.1 mph 17.3 mph 0.00 in Snow Light Snow
9:26 PM 26.6 °F 16.2 °F 23.0 °F 86% 29.80 in 4.0 mi North 11.5 mph - 0.00 in Snow Light Snow
9:51 PM 27.0 °F 17.3 °F 23.0 °F 85% 29.81 in 4.0 mi North 10.4 mph - 0.00 in Snow Light Snow
9:59 PM 26.6 °F 16.8 °F 23.0 °F 86% 29.81 in 4.0 mi North 10.4 mph - 0.00 in Snow Light Snow
10:47 PM 26.6 °F 15.2 °F 21.2 °F 80% 29.87 in 4.0 mi North 13.8 mph - 0.00 in Snow Light Snow
10:51 PM 26.1 °F 15.6 °F 21.9 °F 84% 29.87 in 4.0 mi North 11.5 mph - 0.00 in Snow Light Snow
11:42 PM 26.6 °F 16.2 °F 21.2 °F 80% 29.91 in 3.0 mi North 11.5 mph - 0.01 in Snow Light Snow
11:51 PM 26.1 °F 16.2 °F 21.0 °F 81% 29.92 in 3.0 mi North 10.4 mph - 0.01 in Snow Light Snow